Location: Marcé
(47.5801°N, 0.3280°W)
Time: 00:01:10
(UTC+01:00)

S-56A Canister/Altair - Pass Details

Date: 06 December 2021
Orbit: 633 x 2499 km, 38.9° (Epoch: 17 January)

Event Time Altitude Azimuth Distance (km) Brightness Sun altitude
Rises 01:03:24 0° 240° (WSW) 5,321 - -64.8°
Reaches altitude 10° 01:07:34 10° 234° (SW) 4,025 - -64.7°
Maximum altitude 01:16:36 40° 171° (S) 1,820 - -64.4°
Drops below altitude 10° 01:22:48 10° 104° (ESE) 2,762 - -64.2°
Sets 01:25:10 0° 96° (E) 3,519 - -64.1°
